[[{"header":{"parameterUnit":"m.s-1","parameterCategory":1,"la1":30.2991,"la2":30.254,"lo1":-89.0895,"lo2":-89.0444,"dy":0.0017,"dx":0.0017,"nx":28,"ny":28,"refTime":"2024-07-26T21:00:00:Z","depth":0,"parameterNumber":2,"parameterNumberName":"U-component_of_WINDS"},"data":[0,0,0,0,0,0,0,0,0,0,0,0,0,0,0,0,0,0,0,0,0,0,0,0,0,0,0,0,0,0,0,0,0,0,0,0,0,0,0,0,0,0,0,0,0,0,0,0,0,0,0,0,0,0,0,0,0,0,1.074,1.0739,0,1.0675,1.0675,1.0674,1.0592,1.059,1.0589,1.0588,1.0519,1.0518,1.0518,0,0,0,0,0,0,0,0,0,0,0,0,0,1.0791,1.0791,1.074,1.0739,1.0739,1.0675,1.0675,1.0674,1.0592,1.059,1.0589,1.0587,1.0519,1.0518,1.0518,0,0,0,0,0,0,0,0,0,0,0,0,0,1.0752,1.0791,1.074,1.069,1.0685,1.0676,1.0675,1.0673,1.0592,1.059,1.0588,1.0586,1.0519,1.0518,1.0518,1.0551,0,0,1.0515,1.0514,0,0,0,0,0,0,0,0,1.0754,1.075,1.0698,1.0694,1.0688,1.064,1.0667,1.0632,1.0593,1.0627,1.0588,1.0586,1.056,1.0556,1.0548,1.0548,1.0545,1.0515,1.0514,1.0514,1.0513,0,0,0,0,0,0,0,1.0757,1.0753,1.0714,1.0698,1.0691,1.067,1.0663,1.066,1.0606,1.0624,1.0618,1.0612,1.0557,1.0549,1.0546,1.0544,1.0515,1.0514,1.0513,1.0513,1.0568,1.057,0,0,0,0,0,0,1.0768,1.0755,1.0716,1.0712,1.0717,1.0671,1.0662,1.0657,1.0606,1.0596,1.0614,1.0608,1.0552,1.0547,1.0543,1.0579,1.0514,1.0513,1.0512,1.0566,1.0569,1.0571,0,0,0,0,0,0,1.0769,1.0765,1.0719,1.0732,1.0725,1.0672,1.0667,1.0657,1.0649,1.0597,1.0587,1.0616,1.055,1.0544,1.055,1.0576,1.0512,1.0512,1.0564,1.0567,1.057,1.0652,0,0,0,0,0,0,1.0771,1.0766,1.0779,1.0733,1.0725,1.0728,1.0669,1.0657,1.0648,1.064,1.0597,1.0587,1.0548,1.0552,1.0549,1.0573,1.0511,1.0561,1.0565,1.0569,1.0647,1.0658,1.0667,0,0,0,0,0,1.0773,1.0804,1.078,1.0776,1.0739,1.073,1.0725,1.0679,1.065,1.0662,1.0629,1.0589,1.0574,1.0553,1.0549,1.0574,1.0559,1.0564,1.0569,1.0642,1.0656,1.0667,0,0,0,0,0,0,1.0853,1.0797,1.077,1.0787,1.0764,1.0716,1.073,1.0695,1.0679,1.0672,1.0616,1.0607,1.0619,1.0597,1.0575,1.0604,1.056,1.0565,1.0618,1.063,1.064,1.0645,1.051,0,0,0,0,0,1.0873,1.087,1.0821,1.0841,1.0831,1.0783,1.0777,1.0744,1.0717,1.0707,1.0674,1.0649,1.0639,1.0633,1.0621,1.0643,1.0632,1.0658,1.0668,1.0677,1.0681,1.0691,1.0702,1.0586,1.0586,1.0586,0,0,1.0913,1.0882,1.0884,1.0856,1.0834,1.0833,1.0775,1.0775,1.0773,1.0706,1.071,1.0686,1.0654,1.0669,1.0673,1.065,1.071,1.0682,1.069,1.0689,1.0697,1.0708,1.0718,1.0589,1.0588,1.0588,0,0,1.0986,1.0962,1.0976,1.0956,1.0924,1.0892,1.0896,1.0853,1.0835,1.0838,1.0788,1.0784,1.0767,1.0747,1.0735,1.0801,1.0763,1.0798,1.085,1.0861,1.087,1.0878,1.0902,1.0911,1.0802,1.0803,1.0803,0,1.104,1.1035,1.0988,1.0992,1.0981,1.0922,1.0936,1.0918,1.0884,1.0877,1.0852,1.083,1.0805,1.0814,1.083,1.0822,1.0824,1.0803,1.0873,1.088,1.0887,1.0909,1.0918,1.0807,1.0807,1.0806,1.0806,0,1.1103,1.1101,1.1116,1.1086,1.1077,1.1086,1.1039,1.1035,1.1004,1.0974,1.0978,1.0946,1.0926,1.0925,1.0894,1.093,1.0917,1.0883,1.0839,1.0903,1.0923,1.0931,1.0814,1.0812,1.0811,1.081,0,0,1.1224,1.1168,1.1174,1.116,1.1121,1.1118,1.1124,1.1105,1.1104,1.1082,1.1085,1.1073,1.1042,1.1028,1.0994,1.1003,1.1058,1.0968,1.0966,1.0986,1.1096,1.1121,1.1132,1.1033,1.1034,1.1035,1.1098,0,1.1289,1.1297,1.1255,1.1273,1.1271,1.1215,1.122,1.1197,1.117,1.1163,1.1132,1.1125,1.1084,1.1075,1.1082,1.105,1.1079,1.1045,1.1035,1.1035,1.1045,1.1142,1.1169,1.123,1.1106,1.1107,1.1108,0,1.1366,1.135,1.1369,1.133,1.1327,1.1333,1.1313,1.1307,1.1279,1.1259,1.1244,1.1205,1.1208,1.1166,1.1168,1.1146,1.1139,1.1123,1.1124,1.1121,1.1075,1.1142,1.1248,1.1258,1.112,1.1119,1.1118,0,1.1452,1.1435,1.1444,1.1433,1.1388,1.1393,1.1374,1.1345,1.1337,1.1319,1.1313,1.1296,1.1286,1.1273,1.1231,1.1204,1.1238,1.1193,1.1221,1.1222,1.123,1.123,1.1337,1.1226,1.1226,1.1226,1.1226,0,1.1529,1.1543,1.1482,1.1488,1.1502,1.1453,1.1468,1.1443,1.1417,1.1417,1.1368,1.1368,1.1312,1.1306,1.1273,1.128,1.1276,1.1259,1.125,1.1263,1.1265,1.1258,1.1252,1.1228,1.1228,1.1227,1.1227,0,1.1627,1.1587,1.1593,1.155,1.154,1.1552,1.1514,1.1518,1.1488,1.1488,1.1485,1.1438,1.1428,1.1385,1.1365,1.1342,1.1361,1.1343,1.1371,1.1365,1.1395,1.1393,1.1501,1.1513,1.1395,1.1397,1.1398,0,1.1678,1.1688,1.1646,1.1643,1.1627,1.1622,1.1614,1.1566,1.156,1.1529,1.1536,1.1523,1.151,1.1497,1.1461,1.1445,1.1426,1.1465,1.1424,1.1437,1.1427,1.1427,1.1427,1.1474,1.1476,1.1477,1.1478,0,1.1774,1.1754,1.1745,1.1729,1.1721,1.1706,1.1688,1.1688,1.1635,1.163,1.162,1.1611,1.1591,1.1578,1.1557,1.1536,1.1499,1.1492,1.1497,1.1511,1.1527,1.1519,1.1395,1.1489,1.1488,1.1487,1.1487,1.1486,1.185,1.1856,1.1828,1.1819,1.1801,1.1786,1.1787,1.1758,1.1749,1.173,1.1703,1.1697,1.1669,1.1637,1.1619,1.1614,1.1592,1.16,1.1602,1.1605,1.1612,1.1528,1.1609,1.1609,1.1609,1.1608,1.1608,0,1.1943,1.1923,1.1915,1.1892,1.1886,1.1852,1.183,1.1827,1.1823,1.18,1.1789,1.1778,1.1766,1.173,1.1714,1.1716,1.1698,1.1713,1.1712,1.1708,1.1632,1.1629,1.1728,1.1728,1.1728,1.1728,1.1728,1.1728,1.1991,1.1999,1.1976,1.1976,1.1955,1.195,1.194,1.1926,1.1908,1.1898,1.1889,1.1865,1.1837,1.1819,1.1806,1.1795,1.1791,1.1812,1.1796,1.1725,1.1714,1.1703,1.1699,1.1812,1.1812,1.1873,1.1874,1.1874]},{"header":{"parameterUnit":"m.s-1","parameterCategory":1,"la1":30.2991,"la2":30.254,"lo1":-89.0895,"lo2":-89.0444,"dy":0.0017,"dx":0.0017,"nx":28,"ny":28,"refTime":"2024-07-26T21:00:00:Z","depth":0,"parameterNumber":3,"parameterNumberName":"V-component_of_WINDS"},"data":[0,0,0,0,0,0,0,0,0,0,0,0,0,0,0,0,0,0,0,0,0,0,0,0,0,0,0,0,0,0,0,0,0,0,0,0,0,0,0,0,0,0,0,0,0,0,0,0,0,0,0,0,0,0,0,0,0,0,3.5693,3.5692,0,3.5652,3.5651,3.5651,3.5627,3.5627,3.5627,3.5627,3.5582,3.5581,3.558,0,0,0,0,0,0,0,0,0,0,0,0,0,3.5747,3.5746,3.5693,3.5692,3.5692,3.5652,3.5651,3.5651,3.5627,3.5627,3.5627,3.5627,3.5582,3.5581,3.558,0,0,0,0,0,0,0,0,0,0,0,0,0,3.5716,3.5746,3.5693,3.5675,3.5673,3.5652,3.5651,3.565,3.5627,3.5627,3.5627,3.5627,3.5583,3.5581,3.558,3.5572,0,0,3.5574,3.5574,0,0,0,0,0,0,0,0,3.5718,3.5714,3.5678,3.5676,3.5674,3.5644,3.5654,3.5624,3.5627,3.5644,3.5627,3.5627,3.5603,3.5599,3.5592,3.557,3.5568,3.5574,3.5573,3.5573,3.5572,0,0,0,0,0,0,0,3.572,3.5716,3.5676,3.5678,3.5675,3.5668,3.5664,3.5648,3.5625,3.5643,3.5641,3.5637,3.5601,3.5594,3.5591,3.5567,3.5574,3.5573,3.5572,3.5571,3.5534,3.5534,0,0,0,0,0,0,3.5726,3.5718,3.5678,3.5675,3.5696,3.5667,3.5662,3.5654,3.5625,3.562,3.5637,3.5636,3.5596,3.5593,3.5589,3.5577,3.5573,3.5571,3.557,3.5534,3.5534,3.5534,0,0,0,0,0,0,3.5727,3.5722,3.5679,3.5696,3.569,3.5666,3.5657,3.5653,3.5645,3.562,3.5616,3.5633,3.5596,3.5591,3.5576,3.5575,3.557,3.5569,3.5534,3.5534,3.5534,3.5553,0,0,0,0,0,0,3.5729,3.5723,3.5721,3.5696,3.5689,3.5668,3.5657,3.5652,3.5643,3.5641,3.5616,3.5611,3.5596,3.5579,3.5574,3.5572,3.5567,3.5534,3.5534,3.5534,3.5552,3.5554,3.5555,0,0,0,0,0,3.5731,3.5727,3.5721,3.5716,3.5686,3.5668,3.5664,3.5647,3.5643,3.564,3.5623,3.5612,3.5576,3.5577,3.5572,3.557,3.5534,3.5534,3.5534,3.5552,3.5553,3.5555,0,0,0,0,0,0,3.5752,3.5724,3.5716,3.5705,3.5689,3.5664,3.566,3.5649,3.5634,3.5633,3.5611,3.5606,3.5592,3.5579,3.5581,3.556,3.5554,3.5553,3.5569,3.557,3.5571,3.5574,3.5566,0,0,0,0,0,3.5755,3.5744,3.572,3.5712,3.5705,3.5684,3.5675,3.5664,3.5646,3.5639,3.5621,3.5604,3.5588,3.5578,3.5563,3.555,3.5543,3.5546,3.5547,3.5548,3.5548,3.5538,3.5539,3.5534,3.5534,3.5534,0,0,3.5762,3.5746,3.574,3.5716,3.5703,3.569,3.5678,3.5666,3.5656,3.5637,3.5621,3.5607,3.5586,3.5572,3.5565,3.5561,3.5547,3.5548,3.5549,3.5548,3.5538,3.5539,3.5539,3.5534,3.5534,3.5534,0,0,3.5769,3.5755,3.5747,3.5734,3.5713,3.5699,3.5697,3.5673,3.5663,3.5648,3.5632,3.5619,3.5593,3.5578,3.5567,3.5566,3.5555,3.5562,3.5568,3.5559,3.556,3.556,3.5558,3.5558,3.5561,3.5561,3.5561,0,3.5779,3.5761,3.5744,3.5732,3.5722,3.5704,3.5694,3.5682,3.5657,3.5649,3.5645,3.5611,3.5596,3.5577,3.5577,3.5569,3.5565,3.5565,3.5561,3.5561,3.5561,3.5559,3.5559,3.5562,3.5562,3.5562,3.5562,0,3.5775,3.5763,3.5758,3.5735,3.5724,3.5713,3.5693,3.5684,3.5672,3.5658,3.5641,3.5622,3.5601,3.5596,3.5585,3.5575,3.5573,3.5565,3.5559,3.5563,3.556,3.556,3.5563,3.5563,3.5563,3.5563,0,0,3.5794,3.5761,3.5759,3.5748,3.5724,3.5713,3.5701,3.5681,3.5673,3.5656,3.5644,3.5622,3.5615,3.5602,3.5589,3.5581,3.558,3.5574,3.5573,3.5575,3.5566,3.5572,3.5571,3.5572,3.5572,3.5572,3.5568,0,3.5796,3.5775,3.5758,3.5742,3.5729,3.5712,3.5701,3.5684,3.567,3.5656,3.564,3.5624,3.5616,3.5608,3.56,3.5582,3.5578,3.5582,3.556,3.5559,3.5565,3.557,3.5576,3.5573,3.5567,3.5567,3.5566,0,3.5795,3.578,3.5763,3.5739,3.5732,3.5723,3.5703,3.5691,3.567,3.566,3.5646,3.5632,3.5617,3.5612,3.5589,3.5592,3.5582,3.5572,3.5571,3.5568,3.5563,3.5566,3.5572,3.5571,3.5565,3.5565,3.5565,0,3.5809,3.5784,3.577,3.5761,3.5733,3.5726,3.5714,3.5694,3.5683,3.5665,3.5657,3.5637,3.5626,3.561,3.5591,3.5589,3.557,3.5563,3.556,3.556,3.5556,3.5557,3.556,3.5551,3.5551,3.5551,3.5551,0,3.5813,3.5803,3.5776,3.5768,3.5755,3.5736,3.5724,3.571,3.5691,3.5679,3.5662,3.565,3.5625,3.561,3.5594,3.5577,3.5572,3.5563,3.5559,3.5564,3.5565,3.5557,3.5556,3.5551,3.5551,3.5551,3.5551,0,3.5827,3.5808,3.5792,3.5766,3.576,3.5752,3.5729,3.5719,3.5704,3.5688,3.5683,3.5659,3.5639,3.5618,3.5592,3.5581,3.5565,3.5559,3.5572,3.557,3.5567,3.5567,3.5564,3.5562,3.5556,3.5556,3.5556,0,3.583,3.5822,3.5795,3.5786,3.5774,3.576,3.5748,3.5728,3.5716,3.5692,3.5685,3.5664,3.5647,3.5617,3.5596,3.5575,3.5569,3.5569,3.5565,3.557,3.5567,3.5568,3.5566,3.557,3.557,3.557,3.557,0,3.5837,3.5828,3.5813,3.5794,3.5781,3.5765,3.5749,3.5742,3.5718,3.5705,3.5686,3.5673,3.5646,3.5625,3.5602,3.5587,3.5574,3.5572,3.5569,3.5575,3.5582,3.5577,3.5574,3.5572,3.5572,3.5571,3.5571,3.5571,3.5845,3.5836,3.5816,3.5799,3.5785,3.5769,3.5759,3.5742,3.5726,3.5703,3.5692,3.5672,3.565,3.5617,3.5603,3.5586,3.5582,3.5579,3.5578,3.5578,3.5579,3.5585,3.5582,3.5582,3.5582,3.5582,3.5581,0,3.585,3.5836,3.5821,3.5798,3.5785,3.5775,3.5755,3.5744,3.5728,3.5709,3.5692,3.5669,3.5649,3.5626,3.5604,3.5594,3.5588,3.5589,3.5589,3.5586,3.5584,3.5588,3.5595,3.5595,3.5595,3.5595,3.5595,3.5595,3.5851,3.5836,3.5825,3.5802,3.5788,3.5769,3.5759,3.5744,3.5728,3.5704,3.5687,3.5673,3.5652,3.5628,3.5608,3.5601,3.5593,3.5597,3.5588,3.5587,3.5586,3.5585,3.5588,3.5595,3.5595,3.5591,3.5591,3.5591]}]]